Flag for Gibraltar Weather past 2 weeks in Gibraltar, Gibraltar

Now
75 °F

Clear.


Feels Like: 77 °F
Forecast: 70 / 85 °F
Wind: 10 mph from Southwest

Location: Gibraltar Airport

Current Time: Aug 5, 2015 at 4:57:53 AM

Latest Report: Aug 5, 2015 at 3:50 AM


Visibility: N/A

Pressure: 29.92 "Hg

Humidity: 74%

Dew point: 66 °F

Location of GibraltarLocation

Historic Weather in Gibraltar — Graph

°F

Gibraltar temperature yesterday

Maximum temperature yesterday: 84 °F (at 4:50 PM)
Minimum temperature yesterday: 70 °F (at 6:50 AM)
Average temperature yesterday: 77 °F

Past Weeks' High & Low Weather Summary

 TemperatureHumidityPressure
High99 °F (Jul 22, 2:50 PM)100% (Jul 21, 5:50 AM)30.04 "Hg (Jul 21, 5:50 AM)
Low68 °F (Aug 1, 9:50 PM)22% (Aug 1, 6:50 PM)29.77 "Hg (Jul 30, 6:50 PM)
Average79 °F67%29.92 "Hg
* Reported Jul 21 2:50 AM — Aug 5 2:50 AM, Gibraltar, Weather by CustomWeather, © 2015

Note: Actual official high and low records may vary slightly from our data, if they occured in-between our weather recording intervals... More about our weather records

Advertising

Gibraltar weather history for previous 24 hours

 ConditionsComfort  
Time TempWeatherWind HumidityBarometerVisibility
2:50 AM
Wed, Aug 5
75 °FClear.8 mph74%29.92 "HgN/A
1:50 AM75 °FClear.7 mph74%29.95 "Hg6 mi
12:50 AM75 °FMild.3 mph74%29.95 "HgN/A
11:50 PM
Tue, Aug 4
75 °FMild.1 mph74%N/AN/A
9:50 PM81 °FSunny.9 mph58%29.92 "Hg10 mi
8:50 PM82 °FSunny.16 mph51%29.89 "Hg10 mi
7:50 PM82 °FSunny.18 mph51%29.89 "Hg10 mi
6:50 PM84 °FSunny.18 mph48%29.92 "Hg10 mi
5:50 PM84 °FSunny.16 mph48%29.92 "Hg10 mi
4:50 PM84 °FSunny.16 mph51%29.92 "Hg10 mi
3:50 PM81 °FSunny.18 mph62%29.95 "Hg10 mi
2:50 PM82 °FSunny.16 mph55%29.95 "Hg10 mi
1:50 PM81 °FSunny.16 mph58%29.98 "Hg10 mi
12:50 PM81 °FSunny.10 mph62%29.98 "Hg10 mi
11:50 AM81 °FSunny.8 mph58%29.98 "Hg10 mi
10:50 AM77 °FSunny.8 mph65%30.01 "Hg10 mi
9:50 AM73 °FSunny.9 mph74%30.01 "Hg10 mi
8:50 AM72 °FPassing clouds.8 mph83%30.01 "HgN/A
7:50 AM72 °FPassing clouds.7 mph83%29.98 "HgN/A
6:50 AM70 °FClear.15 mph88%29.98 "HgN/A
5:50 AM72 °FClear.10 mph83%29.98 "HgN/A
4:50 AM72 °FClear.14 mph88%29.98 "Hg6 mi
Weather by CustomWeather, © 2015

See weather overviewHow to use our weather pages